Total_Precipitation_Accumulation
2.05 2.07 2.08 2.15 2.26 2.32 2.42 2.67 2.90 2.79 2.49 2.25 2.20 2.12 2.06 2.11 2.30 2.02 1.89 1.84 1.68 1.60 1.59 1.58 1.63 1.72 1.83 1.82 1.83 1.93 2.02 2.17 2.39 2.57 2.76 2.98 3.15 3.29
1.88 1.88 1.86 1.89 2.01 2.02 2.09 2.25 2.54 2.76 2.56 2.13 2.06 2.02 2.05 1.93 2.17 1.93 1.89 1.89 1.60 1.42 1.36 1.37 1.41 1.47 1.53 1.56 1.59 1.62 1.70 1.80 1.96 2.17 2.38 2.59 2.79 3.01
1.70 1.73 1.75 1.82 1.92 1.89 1.92 2.02 2.19 2.42 2.58 2.31 2.14 2.07 2.05 2.09 2.09 1.93 1.80 1.70 1.55 1.46 1.27 1.21 1.23 1.32 1.33 1.34 1.42 1.48 1.50 1.57 1.75 1.92 2.13 2.34 2.52 2.65
1.60 1.66 1.67 1.71 1.79 1.83 1.92 2.02 2.14 2.31 2.43 2.48 2.32 2.17 2.09 2.07 2.10 2.05 1.78 1.60 1.52 1.55 1.34 1.21 1.13 1.12 1.20 1.20 1.23 1.33 1.42 1.49 1.58 1.71 1.86 2.02 2.16 2.27
1.50 1.56 1.61 1.71 1.70 1.74 1.80 1.87 1.99 2.08 2.27 2.37 2.27 2.17 2.10 2.00 2.15 2.01 1.88 1.99 1.63 1.50 1.37 1.25 1.15 1.10 1.31 1.34 1.14 1.14 1.21 1.33 1.39 1.48 1.64 1.76 1.85 1.91
1.28 1.39 1.47 1.54 1.56 1.65 1.66 1.74 1.83 2.02 2.20 2.27 2.14 2.01 1.96 1.99 2.12 2.10 2.01 1.95 1.78 1.43 1.41 1.32 1.22 1.21 1.50 2.01 1.51 1.22 1.19 1.28 1.36 1.40 1.44 1.48 1.49 1.53
1.17 1.22 1.27 1.32 1.33 1.36 1.33 1.50 1.69 1.87 2.00 2.09 2.03 1.98 1.93 2.06 2.05 1.97 1.94 1.92 1.76 1.55 1.53 1.41 1.51 1.74 2.22 2.83 2.35 1.73 1.50 1.39 1.33 1.39 1.40 1.37 1.32 1.26
1.22 1.21 1.11 1.10 1.07 1.01 1.05 1.17 1.39 1.64 1.90 2.02 1.97 1.96 1.94 2.02 2.12 2.08 2.04 2.11 2.05 1.69 1.62 1.54 1.73 2.49 3.11 3.38 2.91 2.08 1.76 1.54 1.41 1.46 1.52 1.47 1.30 1.19
1.20 1.19 1.00 0.92 1.03 1.02 1.06 1.06 1.14 1.29 1.57 1.87 1.96 1.87 1.91 2.04 2.24 2.28 2.22 2.20 2.15 1.88 1.89 1.83 1.98 2.77 2.98 3.11 2.95 2.16 1.83 1.67 1.62 1.69 1.70 1.53 1.33 1.19
0.95 1.04 1.11 1.11 1.03 1.06 1.07 1.18 1.24 1.34 1.42 1.56 1.78 1.76 1.74 1.93 2.14 2.17 2.14 2.10 2.04 1.91 1.94 2.04 2.16 2.64 2.58 2.65 2.69 2.16 1.85 1.72 1.68 1.71 1.66 1.46 1.30 1.19
0.79 0.85 0.91 0.95 0.94 1.00 1.10 1.29 1.37 1.48 1.45 1.61 1.62 1.55 1.57 1.64 1.66 1.80 2.09 2.29 2.19 1.90 1.77 1.91 2.06 2.34 2.40 2.43 2.28 2.08 1.88 1.77 1.66 1.63 1.55 1.33 1.21 1.18
0.86 0.91 0.86 0.75 0.80 0.90 1.11 1.37 1.56 1.61 1.65 1.76 1.72 1.70 1.60 1.57 1.52 1.60 1.99 2.29 2.28 2.06 1.74 1.77 1.89 2.10 2.34 2.27 2.05 1.89 1.91 1.93 1.83 1.74 1.57 1.29 1.09 1.03
0.85 0.93 0.92 0.77 0.70 0.77 0.98 1.22 1.41 1.48 1.71 1.96 1.82 1.66 1.62 1.59 1.56 1.57 1.78 1.96 1.97 1.87 1.61 1.73 1.91 2.01 2.14 2.16 2.07 2.05 1.95 1.89 1.88 1.94 1.82 1.49 1.19 1.00
0.88 0.91 0.91 0.86 0.79 0.85 0.99 1.15 1.29 1.49 1.71 1.84 1.65 1.48 1.40 1.39 1.44 1.41 1.41 1.44 1.53 1.52 1.48 1.64 1.93 2.11 2.13 2.02 2.09 2.08 2.06 2.03 1.97 1.96 1.94 1.77 1.45 1.24
0.77 0.86 0.83 0.79 0.87 1.08 1.21 1.31 1.47 1.69 1.75 1.63 1.50 1.37 1.27 1.32 1.32 1.31 1.30 1.35 1.34 1.21 1.16 1.33 1.66 1.90 2.06 2.03 2.05 2.04 2.12 2.24 2.17 2.11 2.05 1.87 1.63 1.40
0.74 0.89 0.95 0.95 1.09 1.27 1.41 1.50 1.62 1.72 1.59 1.46 1.40 1.29 1.19 1.27 1.32 1.28 1.39 1.45 1.45 1.34 1.24 1.27 1.44 1.72 1.88 1.88 2.00 2.07 2.10 2.41 2.45 2.26 2.22 2.16 1.89 1.62
0.75 0.91 1.05 1.09 1.19 1.33 1.45 1.52 1.57 1.59 1.51 1.39 1.33 1.26 1.20 1.20 1.17 1.14 1.27 1.38 1.42 1.41 1.38 1.34 1.37 1.49 1.61 1.71 1.90 2.00 2.12 2.34 2.44 2.24 2.18 2.27 2.11 1.80
0.80 1.06 1.15 1.13 1.17 1.23 1.34 1.45 1.45 1.45 1.42 1.43 1.43 1.39 1.31 1.22 1.18 1.13 1.16 1.25 1.35 1.33 1.34 1.32 1.32 1.35 1.47 1.57 1.72 1.82 1.86 2.06 2.12 2.01 1.84 1.93 2.09 1.88
0.82 1.04 1.15 1.18 1.20 1.22 1.25 1.31 1.37 1.38 1.33 1.36 1.39 1.34 1.24 1.15 1.13 1.14 1.15 1.23 1.27 1.21 1.14 1.10 1.15 1.24 1.38 1.62 1.70 1.70 1.72 1.75 1.77 1.78 1.67 1.60 1.73 1.72
0.81 0.99 1.10 1.15 1.19 1.23 1.23 1.21 1.27 1.32 1.28 1.24 1.29 1.27 1.20 1.15 1.16 1.18 1.18 1.14 1.16 1.10 1.07 1.01 1.01 1.11 1.27 1.47 1.77 1.87 1.63 1.46 1.43 1.54 1.55 1.51 1.62 1.64
0.77 0.88 0.99 1.06 1.07 1.09 1.15 1.18 1.21 1.25 1.21 1.18 1.21 1.23 1.22 1.19 1.13 1.06 1.02 0.94 0.99 1.03 1.03 1.03 1.00 0.96 0.96 1.09 1.35 1.60 1.64 1.49 1.35 1.35 1.35 1.44 1.48 1.38
0.71 0.81 0.91 0.94 0.95 0.91 0.93 0.97 1.01 1.04 1.04 1.08 1.14 1.11 1.06 1.03 0.97 0.91 0.91 0.92 0.96 0.99 0.97 0.93 0.89 0.90 0.96 1.10 1.25 1.39 1.47 1.33 1.23 1.21 1.18 1.14 1.13 1.18
0.79 0.81 0.84 0.86 0.86 0.84 0.82 0.81 0.85 0.90 0.92 0.95 1.01 1.00 0.93 0.90 0.85 0.80 0.78 0.79 0.81 0.83 0.85 0.89 0.93 0.94 0.96 0.99 1.03 1.10 1.16 1.16 1.08 1.05 1.13 1.12 1.02 1.06